Flag Weather past 2 weeks in Alice Springs, Northern Territory, Australia

Now
84 °F

Sunny.


Feels Like: 81 °F
Forecast: 74 / 98 °F
Wind: No wind

Location: Alice Springs Aerodrome

Current Time: Nov 29, 2014 at 8:34:14 AM

Latest Report: Nov 29, 2014 at 7:30 AM


Visibility: 10 mi

Pressure: 29.86 "Hg

Humidity: 16%

Dew point: 34 °F

Location of Alice SpringsLocation

Historic Weather in Alice Springs — Graph

°F

Alice Springs temperature yesterday

Maximum temperature yesterday: 99 °F (at 4:30 PM)
Minimum temperature yesterday: 61 °F (at 5:30 AM)
Average temperature yesterday: 80 °F

Past Weeks' High & Low Weather Summary

 TemperatureHumidityPressure
High106 °F (Nov 21, 2:30 PM)94% (Nov 15, 10:00 PM)32.81 "Hg (Nov 15, 10:00 PM)
Low57 °F (Nov 17, 5:30 AM)8% (Nov 27, 10:30 AM)29.74 "Hg (Nov 21, 3:30 PM)
Average81 °F36%29.97 "Hg
* Reported Nov 14 7:30 AM — Nov 29 7:30 AM, Alice Springs, Weather by CustomWeather, © 2014

Note: Actual official high and low records may vary slightly from our data, if they occured in-between our weather recording intervals... More about our weather records

Advertising

Alice Springs weather history for previous 24 hours

 ConditionsComfort  
Time TempWeatherWind HumidityBarometerVisibility
7:30 AM
Nov 29
84 °FSunny.No wind16%29.86 "Hg10 mi
7:00 AM81 °FSunny.No wind18%29.86 "Hg10 mi
6:30 AM75 °FSunny.5 mph22%29.86 "Hg10 mi
6:00 AM72 °FSunny.5 mph29%29.83 "Hg10 mi
5:30 AM72 °FSunny.3 mph29%29.83 "HgN/A
5:00 AM72 °FClear.No wind29%29.83 "HgN/A
4:30 AM73 °FClear.1 mph27%29.83 "HgN/A
4:00 AM75 °FClear.5 mph31%29.83 "HgN/A
3:30 AM77 °FClear.2 mph26%29.83 "HgN/A
2:30 AM77 °FClear.1 mph22%29.83 "HgN/A
1:30 AM77 °FClear.No wind22%29.83 "HgN/A
1:00 AM77 °FClear.6 mph22%29.86 "HgN/A
12:30 AM75 °FClear.5 mph27%29.86 "HgN/A
11:30 PM
Nov 28
77 °FClear.No wind22%29.86 "HgN/A
10:30 PM79 °FClear.1 mph23%29.86 "HgN/A
9:30 PM81 °FClear.7 mph23%29.86 "HgN/A
9:00 PM82 °FClear.7 mph20%29.86 "HgN/A
8:30 PM84 °FClear.8 mph15%29.86 "HgN/A
7:30 PM90 °FClear.9 mph11%29.83 "HgN/A
6:30 PM95 °FSunny.9 mph10%29.83 "HgN/A
6:00 PM95 °FSunny.3 mph10%29.83 "HgN/A
5:30 PM95 °FSunny.5 mph11%29.83 "HgN/A
5:00 PM95 °FSunny.6 mph11%29.83 "Hg10 mi
4:30 PM99 °FPassing clouds.8 mph9%29.83 "HgN/A
3:30 PM97 °FDuststorm.6 mph11%29.83 "HgN/A
3:00 PM97 °FPassing clouds.9 mph9%29.86 "HgN/A
2:30 PM95 °FPassing clouds.9 mph10%29.86 "HgN/A
2:00 PM97 °FPassing clouds.10 mph9%29.86 "HgN/A
1:30 PM93 °FPassing clouds.8 mph13%29.89 "HgN/A
12:30 PM93 °FDuststorm.8 mph15%29.92 "HgN/A
11:30 AM91 °FDuststorm.6 mph16%29.95 "HgN/A
11:00 AM90 °FSunny.8 mph15%29.95 "Hg10 mi
10:30 AM90 °FSunny.13 mph13%29.98 "Hg10 mi
10:00 AM88 °FSunny.10 mph13%29.98 "Hg10 mi
9:30 AM86 °FPassing clouds.9 mph12%29.98 "HgN/A
8:30 AM82 °FSunny.9 mph13%29.98 "Hg10 mi
8:00 AM79 °FSunny.8 mph15%30.01 "Hg10 mi
Weather by CustomWeather, © 2014

See weather overviewHow to use our weather pages